{"data":{"norad_id":57063,"intl_designator":"2023-088R","name":"STARLINK-5832","alt_names":[],"object_type":"PAYLOAD","status":"ACTIVE","operator":null,"country":"US","launch_date":"2023-06-22","launch_site_code":"AFWTR","launch_vehicle":null,"mission":null,"orbit_class":"UNKNOWN","rcs_meters":null,"size_class":null,"mass_kg":null,"dimensions":null,"purposes":["comms"],"wikipedia_slug":null,"has_3d_model":false,"image_url":null,"decayed_at":null,"tle_current":{"epoch":"2026-05-25T03:10:47.523072Z","epoch_age_seconds":70545,"freshness":"FRESH","line1":"1 57063U 23088R   26145.13249448  .00053558  00000+0  19584-2 0  9999","line2":"2 57063  43.0029  38.9166 0001054 274.3000  85.7731 15.27298426162028","mean_motion":15.27298426,"eccentricity":0.0001054,"inclination_deg":43.0029,"raan_deg":38.9166,"arg_perigee_deg":274.3,"mean_anomaly_deg":85.7731,"bstar":0.0019584,"rev_number":16202,"period_min":94.284127809348,"perigee_km":483.16910152828,"apogee_km":484.61561731724,"semimajor_km":6862.0293594228,"source":"CELESTRAK","updated_at":"2026-05-25T13:38:18.211183Z"}}}